Weather History for Aberdeen, SD

Change the Weather History Date:

Friday, February 15, 2013

  Actual Average Record
Temperature  
Mean Temperature 8 °F 18 °F  
Max Temperature 22 °F 28 °F 65 °F (1921)
Min Temperature -6 °F 7 °F -35 °F (1939)
Degree Days  
Heating Degree Days 57 48  
Month to date heating degree days 719 747  
Since 1 July heating degree days 5732 5881  
Cooling Degree Days 0 0  
Month to date cooling degree days 0 0  
Year to date cooling degree days 0 0  
Moisture  
Dew Point 4 °F    
Average Humidity 81    
Maximum Humidity 95    
Minimum Humidity 67    
Precipitation  
Precipitation 0.04 in 0.02 in 0.60 in (1910)
Month to date precipitation 1.03 0.25  
Year to date precipitation 1.81 0.72  
Snow  
Snow 0.50 in - - ()
Month to date snowfall 14.8  
Since 1 July snowfall 38.3  
Snow Depth 10.00 in    
Sea Level Pressure  
Sea Level Pressure 30.34 in    
Wind  
Wind Speed 3 mph (WSW)    
Max Wind Speed 10 mph    
Max Gust Speed 12 mph    
Visibility 5 miles    
Events Fog , Snow    
T = Trace of Precipitation, MM = Missing Value Source: NWS Daily Summary

Daily Weather History Graph

Daily Weather History Graph

Search for Another Location

Airport:

Trip Planner

Search our weather history database for the weather conditions in past years. The results will help you decide how hot, cold, wet, or windy it might be!

Date:

Astronomy

Feb. 15, 2013 Rise Set
Actual Time 7:34 AM CST 6:01 PM CST
Civil Twilight 7:04 AM CST 6:31 PM CST
Nautical Twilight 6:29 AM CST 7:06 PM CST
Astronomical Twilight 5:55 AM CST 7:40 PM CST
Moon 9:52 AM CST (2/15) No Moon Set
Length of Visible Light 11h 27m
Length of Day
10h 26m
Waxing Crescent, 30% of the Moon is Illuminated
Feb 15
Waxing Crescent
Feb 17
First Quarter
Feb 25
Full
Mar 4
Last Quarter
Mar 11
New

Hourly Weather History & Observations

Time (CST) Temp. Windchill Dew Point Humidity Pressure Visibility Wind Dir Wind Speed Gust Speed Precip Events Conditions
12:53 AM 10.9 °F 0.2 °F 5.0 °F 77% 30.35 in 10.0 mi NW 6.9 mph - N/A   Mostly Cloudy
1:53 AM 9.0 °F - 3.9 °F 80% 30.36 in 10.0 mi Calm Calm - N/A   Overcast
2:53 AM 12.0 °F - 7.0 °F 80% 30.36 in 5.0 mi Calm Calm - 0.00 in Snow Light Snow
3:22 AM 12.2 °F 4.3 °F 8.6 °F 85% 30.28 in 10.0 mi WSW 4.6 mph - 0.00 in   Overcast
3:43 AM 14.0 °F 8.2 °F 8.6 °F 79% 30.28 in 1.8 mi WSW 3.5 mph - 0.00 in Snow Light Snow
3:53 AM 14.0 °F - 9.0 °F 80% 30.35 in 1.5 mi Calm Calm - 0.01 in Snow Light Snow
4:31 AM 12.2 °F - 10.4 °F 92% 30.27 in 2.5 mi Calm Calm - 0.00 in Snow Light Snow
4:53 AM 12.9 °F - 10.0 °F 88% 30.35 in 2.5 mi Calm Calm - 0.00 in Snow Light Snow
5:05 AM 12.2 °F - 10.4 °F 92% 30.27 in 1.5 mi Calm Calm - 0.00 in Snow Light Snow
5:53 AM 14.0 °F 8.2 °F 10.0 °F 84% 30.35 in 1.8 mi SE 3.5 mph - 0.02 in Snow Light Snow
6:00 AM 12.2 °F - 10.4 °F 92% 30.27 in 2.0 mi Calm Calm - 0.00 in Snow Light Snow
6:22 AM 12.2 °F 4.3 °F 8.6 °F 85% 30.27 in 4.0 mi SSE 4.6 mph - 0.00 in Snow Light Snow
6:53 AM 10.9 °F 2.9 °F 7.0 °F 84% 30.37 in 3.0 mi SSE 4.6 mph - 0.00 in Snow Light Snow
7:15 AM 10.4 °F 4.0 °F 6.8 °F 85% 30.28 in 2.5 mi SE 3.5 mph - 0.00 in Snow Light Snow
7:20 AM 10.4 °F 4.0 °F 6.8 °F 85% 30.28 in 4.0 mi SSE 3.5 mph - 0.00 in Snow Light Snow
7:53 AM 10.9 °F - 6.1 °F 81% 30.39 in 10.0 mi Calm Calm - 0.00 in   Overcast
8:29 AM 12.2 °F - 6.8 °F 79% 30.30 in 1.8 mi Calm Calm - 0.00 in Snow Light Snow
8:49 AM 12.2 °F - 6.8 °F 79% 30.31 in 2.0 mi Calm Calm - 0.00 in Snow Light Snow
8:53 AM 12.9 °F - 8.1 °F 81% 30.41 in 1.8 mi Calm Calm - 0.00 in Snow Light Snow
9:08 AM 10.4 °F - 6.8 °F 85% 30.32 in 2.0 mi Calm Calm - 0.01 in Snow Light Snow
9:36 AM 14.0 °F - 6.8 °F 73% 30.33 in 5.0 mi Calm Calm - 0.01 in Snow Light Snow
9:53 AM 12.0 °F - 7.0 °F 80% 30.43 in 10.0 mi Calm Calm - 0.01 in   Mostly Cloudy
10:53 AM 17.1 °F - 10.0 °F 74% 30.44 in 9.0 mi Calm Calm - 0.00 in   Overcast
11:39 AM 19.4 °F - 10.4 °F 68% 30.36 in 10.0 mi Calm Calm - N/A   Mostly Cloudy
11:48 AM 19.4 °F 14.3 °F 10.4 °F 68% 30.36 in 10.0 mi North 3.5 mph - N/A   Scattered Clouds
11:53 AM 19.9 °F 13.4 °F 10.9 °F 68% 30.44 in 9.0 mi North 4.6 mph - N/A   Partly Cloudy
12:53 PM 19.9 °F 12.1 °F 12.0 °F 71% 30.45 in 10.0 mi NNW 5.8 mph - N/A   Partly Cloudy
1:06 PM 19.4 °F 11.5 °F 12.2 °F 74% 30.37 in 10.0 mi NNW 5.8 mph - N/A   Mostly Cloudy
1:28 PM 19.4 °F 12.8 °F 10.4 °F 68% 30.37 in 10.0 mi NNW 4.6 mph - N/A   Mostly Cloudy
1:44 PM 19.4 °F 12.8 °F 12.2 °F 74% 30.36 in 10.0 mi NNW 4.6 mph - N/A   Overcast
1:53 PM 19.9 °F 13.4 °F 10.9 °F 68% 30.44 in 10.0 mi North 4.6 mph - N/A   Overcast
2:53 PM 19.0 °F 13.9 °F 10.9 °F 71% 30.43 in 10.0 mi West 3.5 mph - N/A   Mostly Cloudy
3:01 PM 17.6 °F 8.2 °F 10.4 °F 73% 30.35 in 10.0 mi WNW 6.9 mph - N/A   Scattered Clouds
3:53 PM 19.0 °F 9.0 °F 10.9 °F 71% 30.43 in 10.0 mi WNW 8.1 mph - N/A   Clear
4:53 PM 17.1 °F 6.6 °F 9.0 °F 71% 30.43 in 10.0 mi NNW 8.1 mph - N/A   Clear
5:53 PM 14.0 °F 5.1 °F 8.1 °F 77% 30.42 in 10.0 mi NW 5.8 mph - N/A   Clear
6:53 PM 1.9 °F -5.6 °F -0.0 °F 91% 30.42 in 10.0 mi West 3.5 mph - N/A   Clear
7:34 PM -0.4 °F - -2.2 °F 92% 30.32 in 1.8 mi Calm Calm - N/A   Clear
7:37 PM -0.4 °F -8.3 °F -2.2 °F 92% 30.32 in 0.8 mi SSW 3.5 mph - N/A   Clear
7:53 PM -0.9 °F - -4.0 °F 87% 30.41 in 0.2 mi Calm Calm - N/A Fog Light Freezing Fog
8:08 PM -2.2 °F -15.6 °F -5.8 °F 85% 30.31 in 0.2 mi SSW 6.9 mph - N/A Fog Light Freezing Fog
8:17 PM -2.2 °F -14.2 °F -5.8 °F 85% 30.31 in 0.5 mi SW 5.8 mph - N/A Fog Light Freezing Fog
8:23 PM -2.2 °F -12.5 °F -5.8 °F 85% 30.31 in 1.5 mi WSW 4.6 mph - N/A   Clear
8:25 PM -2.2 °F -12.5 °F -5.8 °F 85% 30.30 in 3.0 mi SW 4.6 mph - N/A   Clear
8:53 PM -2.9 °F -15.0 °F -7.1 °F 82% 30.39 in 3.0 mi SW 5.8 mph - N/A   Scattered Clouds
8:55 PM -4.0 °F -14.6 °F -7.6 °F 85% 30.29 in 1.8 mi SW 4.6 mph - N/A   Scattered Clouds
9:09 PM -2.2 °F -12.5 °F -7.6 °F 78% 30.28 in 1.0 mi SW 4.6 mph - N/A   Haze
9:16 PM -2.2 °F - -7.6 °F 78% 30.28 in 1.2 mi Calm Calm - N/A   Partly Cloudy
9:22 PM -2.2 °F - -5.8 °F 85% 30.28 in 1.0 mi Calm Calm - N/A   Mist
9:29 PM -5.8 °F - -7.6 °F 92% 30.28 in 0.5 mi Calm Calm - N/A Fog Light Freezing Fog
9:50 PM -2.2 °F -10.4 °F -5.8 °F 85% 30.27 in 0.2 mi SSW 3.5 mph - N/A Fog Light Freezing Fog
9:53 PM -2.0 °F - -5.1 °F 87% 30.36 in 0.2 mi Calm Calm - N/A Fog Light Freezing Fog
10:20 PM -5.8 °F -14.5 °F -9.4 °F 84% 30.26 in 0.5 mi SSE 3.5 mph - N/A Fog Light Freezing Fog
10:36 PM -5.8 °F -16.7 °F -9.4 °F 84% 30.25 in 2.0 mi South 4.6 mph - N/A   Mostly Cloudy
10:43 PM -5.8 °F -18.4 °F -9.4 °F 84% 30.25 in 8.0 mi South 5.8 mph - N/A   Mostly Cloudy
10:53 PM -4.0 °F -14.6 °F -8.0 °F 83% 30.34 in 4.0 mi South 4.6 mph - N/A   Partly Cloudy
11:53 PM -0.9 °F -11.0 °F -6.0 °F 79% 30.32 in 10.0 mi SSW 4.6 mph - N/A   Clear